{"data":{"norad_id":64596,"intl_designator":"2025-137C","name":"STARLINK-34510","alt_names":[],"object_type":"PAYLOAD","status":"ACTIVE","operator":null,"country":"US","launch_date":"2025-06-25","launch_site_code":"AFETR","launch_vehicle":null,"mission":null,"orbit_class":"UNKNOWN","rcs_meters":null,"size_class":null,"mass_kg":null,"dimensions":null,"purposes":["comms"],"wikipedia_slug":null,"has_3d_model":false,"image_url":null,"decayed_at":null,"tle_current":{"epoch":"2026-09-19T22:26:39.511392Z","epoch_age_seconds":180455,"freshness":"STALE","line1":"1 64596U 25137C   26262.93517953  .00015855  00000+0  47932-3 0  9999","line2":"2 64596  53.1586 150.2283 0001356  75.7417 284.3736 15.34404009 70513","mean_motion":15.34404009,"eccentricity":0.0001356,"inclination_deg":53.1586,"raan_deg":150.2283,"arg_perigee_deg":75.7417,"mean_anomaly_deg":284.3736,"bstar":0.00047932,"rev_number":7051,"period_min":93.847512881466,"perigee_km":461.76370831937,"apogee_km":463.61894096101,"semimajor_km":6840.8283246402,"source":"CELESTRAK","updated_at":"2026-09-21T09:00:35.363922Z"}}}